Location: Fort Worth, Tx
(32.7431°N, 97.3695°W)
Time: 03:54:44
(UTC-04:00)

Vanguard 3 - Pass Details

Date: 03 March 2024
Orbit: 510 x 3234 km, 33.3° (Epoch: 24 April)

Event Time Altitude Azimuth Distance (km) Brightness Sun altitude
Rises 23:32:29 0° 277° (W) 6,885 12.4 -50.3°
Reaches altitude 10° 23:36:49 10° 278° (W) 6,029 11.9 -51.0°
Enters shadow 23:53:27 70° 275° (W) 3,308 9.9 -53.8°
